Lid_Strength_Index
2 2 2 2 2 2 2 2 2 2 2 2 3 3 3 3 3 5 5 4 7 10 10 9 8 10 10 11 13 12 12 11 12 14 13 13 14 12 13 11 13 14 16 16 15 17 19 8 8 13 10 8 8 8
3 3 3 2 2 2 2 2 2 2 2 2 2 3 3 4 3 4 7 4 4 9 10 7 8 8 8 8 11 11 12 12 10 12 11 11 13 12 13 16 9 15 12 14 13 14 9 8 8 8 8 9 9 9
3 3 2 3 2 2 2 2 2 2 2 2 2 3 3 4 3 4 6 5 7 9 10 9 9 7 6 7 7 12 9 8 9 7 9 10 13 10 15 14 12 9 8 12 12 9 9 8 7 8 8 9 8 8
3 3 3 3 3 3 3 2 2 2 2 2 2 3 3 3 3 3 6 6 7 9 13 11 6 7 5 6 7 8 9 7 7 8 9 10 12 8 12 10 11 10 9 11 11 10 9 8 8 8 8 7 8 7
4 4 3 3 2 3 3 2 2 2 2 1 2 2 3 3 3 3 5 5 6 9 12 12 10 8 8 7 7 8 8 8 8 9 9 10 9 9 9 9 11 8 10 12 12 9 10 10 8 8 9 9 8 8
4 4 4 3 2 2 3 2 2 2 2 1 1 2 3 3 3 6 9 6 6 7 11 15 9 9 7 6 7 7 8 7 7 8 9 8 6 9 12 13 8 7 7 9 10 8 8 8 8 8 9 9 9 9
4 4 4 3 2 3 2 2 2 2 1 1 2 2 3 3 5 8 8 7 5 6 11 14 13 8 6 7 8 8 6 7 7 8 9 9 9 8 10 13 9 8 8 8 7 8 10 9 11 9 8 8 8 9
4 4 3 3 2 3 2 2 2 2 1 1 2 3 3 3 5 7 6 6 6 9 10 14 13 11 6 10 10 7 7 7 8 8 8 9 8 8 12 9 7 8 9 8 8 8 9 9 9 9 8 9 10 11
4 4 4 3 3 3 2 2 2 2 2 3 3 4 5 6 9 7 4 5 6 9 13 12 14 13 7 9 8 7 6 10 6 9 9 9 10 12 9 8 9 8 9 9 8 8 8 9 9 9 9 10 11 12
3 4 3 3 3 2 2 2 2 2 3 4 5 7 9 7 4 4 8 11 11 11 11 13 11 13 9 9 9 9 8 10 12 9 7 10 11 7 7 8 8 7 7 8 9 10 9 10 10 10 10 9 10 11
3 3 3 2 2 2 2 2 2 3 4 6 8 8 6 3 7 9 12 13 12 14 12 12 12 13 8 10 10 8 10 9 13 11 11 12 12 8 7 7 6 7 7 7 7 7 8 9 10 9 9 9 9 10
3 3 2 2 2 2 2 2 3 5 6 6 6 5 5 8 9 12 12 11 13 14 11 12 10 11 8 6 10 9 10 10 14 8 11 14 10 7 7 8 8 7 7 7 7 8 8 9 9 9 9 10 10 10
3 2 2 2 2 2 2 3 3 3 4 5 7 9 9 10 13 15 15 13 13 10 9 9 10 9 7 8 9 9 11 13 8 12 13 11 8 8 8 8 8 8 7 7 7 7 7 8 8 8 8 10 10 11
3 3 2 2 2 2 2 2 3 4 6 9 10 13 12 13 13 12 11 10 8 8 8 8 9 9 8 9 9 11 10 10 14 14 14 10 9 8 8 8 9 9 8 8 8 8 8 8 9 9 8 10 11 12
3 3 2 2 2 2 2 3 4 4 7 9 10 13 13 10 9 8 8 8 7 7 8 9 8 8 9 10 10 11 12 14 13 13 10 8 8 8 9 9 9 8 8 8 8 8 8 8 9 9 9 10 11 13
2 2 2 2 2 2 3 4 5 6 8 9 10 12 10 10 10 8 8 8 7 8 8 8 9 10 11 11 12 12 13 14 12 10 8 8 8 8 8 8 7 7 7 8 8 8 8 8 9 9 8 9 11 12
2 3 2 2 3 3 4 7 7 9 10 11 11 9 9 8 9 9 8 8 7 9 11 10 11 12 9 12 13 11 12 11 9 8 8 8 8 8 7 7 6 6 7 7 8 8 8 8 7 9 10 10 11 12
3 2 3 3 5 5 7 7 8 10 11 10 11 9 8 8 8 8 8 7 8 9 9 10 8 11 12 12 12 10 9 8 8 8 8 8 8 8 7 7 6 5 7 7 7 8 8 9 8 9 10 10 11 13
3 4 4 4 5 7 9 9 9 11 11 9 8 8 8 8 7 7 7 6 7 6 8 9 11 11 11 9 9 9 9 9 9 8 8 8 8 8 8 7 6 6 7 7 8 8 9 9 9 9 9 10 13 13
4 4 4 4 4 8 10 10 8 10 10 9 8 9 8 9 8 7 7 7 8 9 11 11 11 9 9 9 8 9 9 8 8 9 9 8 8 7 7 8 8 8 8 8 8 9 9 9 9 9 8 10 13 14
5 5 4 5 7 7 8 9 10 9 8 9 8 8 9 8 8 9 9 7 9 10 11 10 9 9 8 8 8 8 8 8 9 10 10 11 9 9 8 8 8 9 9 10 10 9 9 10 9 9 8 10 11 13
7 5 7 6 8 8 9 7 9 7 8 8 8 8 9 10 9 8 7 10 10 10 9 9 9 9 10 10 9 8 8 8 9 10 11 10 10 10 10 9 10 10 10 10 10 10 9 9 9 9 8 8 10 12
6 6 8 8 10 10 10 6 9 9 11 10 8 10 9 9 8 7 9 9 9 7 8 8 8 8 9 9 9 9 9 9 10 10 10 10 9 9 9 9 10 11 11 10 10 9 9 10 9 9 8 7 8 11
5 8 9 10 10 11 8 10 9 10 9 10 10 11 10 9 7 9 11 9 8 7 8 8 8 9 10 9 10 10 10 9 9 10 10 10 10 10 9 10 10 10 10 10 10 10 9 9 9 8 8 8 8 10
11 11 10 12 9 10 11 11 11 11 11 10 11 11 9 8 10 11 11 9 9 8 8 8 8 8 10 10 9 10 8 9 10 11 10 10 10 10 10 10 11 10 9 11 11 10 10 10 9 8 8 9 8 9
13 10 12 11 11 11 11 12 12 11 11 11 10 9 8 9 11 12 9 8 8 8 8 8 8 8 9 9 9 10 10 9 9 10 10 10 10 11 11 12 12 12 10 10 10 11 11 10 9 9 9 8 9 8
13 12 10 8 8 9 10 9 9 10 11 11 10 10 10 13 12 9 7 6 6 6 6 6 6 7 8 9 9 8 8 8 9 10 9 9 10 9 10 12 12 12 10 9 9 10 10 10 10 9 9 8 8 8
10 9 11 10 9 8 10 10 10 11 10 8 8 11 12 11 10 7 6 5 5 5 5 6 6 7 8 8 8 8 8 8 8 8 9 9 9 9 9 9 9 12 9 9 9 9 9 10 9 9 9 9 8 7
10 8 8 10 10 10 10 10 10 8 7 8 9 10 10 8 6 6 6 5 5 5 7 8 8 8 8 8 8 7 7 7 9 10 10 11 11 11 9 10 9 9 9 9 12 10 10 10 9 9 8 8 8 6
9 7 9 10 11 11 9 7 8 7 6 7 8 8 8 7 6 5 5 6 6 7 7 7 8 8 9 9 10 9 8 8 8 9 11 11 11 9 9 10 10 9 9 8 8 8 10 9 9 8 8 8 8 8
8 8 9 9 10 9 7 6 6 7 7 7 7 9 9 8 7 7 7 6 6 6 7 8 8 8 8 9 9 10 11 10 10 10 10 8 9 9 9 9 9 9 8 8 8 8 9 9 9 9 9 9 9 8
9 10 10 11 10 7 7 8 8 9 8 9 10 9 9 9 10 8 7 7 7 7 8 8 8 8 8 8 9 10 11 11 11 11 11 11 11 10 9 9 9 8 8 8 8 8 9 9 9 9 9 9 9 8
9 9 9 9 10 10 8 9 10 10 10 11 11 10 10 10 12 11 8 8 8 8 7 8 8 8 9 10 11 12 12 12 12 13 13 13 13 12 10 9 9 8 8 9 8 9 9 9 9 10 10 10 9 9